Location: Rooftop Observatory
(39.0308°N, 87.1711°W)
Time: 18:31:02
(UTC-05:00)

Terra - Visible Passes

Search period start: 29 June 2016 00:00
Search period end: 09 July 2016 00:00
Orbit: 701 x 703 km, 98.2° (Epoch: 29 June)

Date Brightness Start Highest point End Pass type
(mag) Time Alt. Az. Time Alt. Az. Time Alt. Az.
29 Jun 2.2 22:26:42 37° ESE 22:28:08 50° ENE 22:32:44 10° N visible
30 Jun 3.9 00:05:35 15° W 00:06:08 16° W 00:08:59 10° NW visible
30 Jun 3.8 21:31:05 10° E 21:33:37 15° ENE 21:36:15 10° NNE visible
30 Jun 2.1 23:09:58 49° SW 23:10:51 58° W 23:15:33 10° NNW visible
01 Jul 2.6 22:14:22 29° ESE 22:15:59 38° ENE 22:20:22 10° N visible
01 Jul 3.6 23:53:15 20° WSW 23:53:49 21° W 23:57:24 10° NW visible
02 Jul 4.0 21:20:08 10° E 21:21:34 11° ENE 21:22:59 10° NE visible
02 Jul 1.8 22:57:38 56° S 22:58:37 78° WSW 23:03:24 10° NNW visible
03 Jul 3.0 22:02:02 22° ESE 22:03:51 29° ENE 22:07:56 10° N visible
03 Jul 3.2 23:40:55 27° WSW 23:41:30 28° W 23:45:35 10° NW visible
04 Jul 1.7 22:45:19 53° SSE 22:46:25 79° ENE 22:51:11 10° N visible
05 Jul 3.3 21:49:43 17° E 21:51:44 22° ENE 21:55:22 10° NNE visible
05 Jul 2.8 23:28:36 35° WSW 23:29:14 37° W 23:33:38 10° NNW visible
06 Jul 2.0 22:33:00 44° SE 22:34:13 58° ENE 22:38:54 10° N visible
07 Jul 4.1 00:11:53 13° W 00:12:19 13° W 00:14:37 10° WNW visible
07 Jul 3.7 21:37:24 13° E 21:39:39 17° ENE 21:42:41 10° NNE visible
07 Jul 2.3 23:16:17 46° SW 23:16:58 50° W 23:21:36 10° NNW visible
08 Jul 2.4 22:20:41 34° ESE 22:22:04 43° ENE 22:26:34 10° N visible
